Location: Penton Mewsey
(51.2167°N, 1.5167°W)
Time: 09:51:54
(UTC+00:00)

NOSS 2-1 (D) - Pass Details

Date: 30 March 2020
Orbit: 450 x 1753 km, 63.3° (Epoch: 22 April)

Event Time Altitude Azimuth Distance (km) Brightness Sun altitude
Rises 19:08:34 0° 231° (SW) 2,453 7.2 -5.8°
Reaches altitude 10° 19:10:35 10° 234° (SW) 1,584 6.3 -6.1°
Maximum altitude 19:13:58 66° 318° (NW) 526 3.5 -6.6°
Drops below altitude 10° 19:17:49 10° 41° (NE) 1,806 5.7 -7.2°
Sets 19:20:16 0° 45° (NE) 2,845 6.7 -7.5°
